User: anonymous   Login
Location: Wildcat Hills Observatory
(41.6350°N, 103.6812°W)
Time: 04:09:17
(UTC-06:00)
Language:

Cosmos 1634 Rocket - Orbit

View from above orbital plane
View from above orbital plane
View from above satellite
View from above satellite

Ground track
Ground track

The orbit data is extracted from the following two-line orbital elements,

1 15598U 85022B   16209.93959769 -.00000017 +00000-0 -32775-4 0  9998
2 15598 082.9382 348.1085 0020950 297.6742 180.8200 13.76539454575614
Epoch (UTC): 27 July 2016 22:33:01
Eccentricity: 0.0020950
inclination: 82.9382°
perigee height: 961 km
apogee height: 991 km
right ascension of ascending node: 348.1085°
argument of perigee: 297.6742°
revolutions per day: 13.76539454
mean anomaly at epoch: 180.8200°
orbit number at epoch: 57561

The dashed part of the orbit path shows where the satellite is in the earth's shadow,  

DLR